Regional Weather Roundup
Issued by NWS

Home | Current Version | Previous Version | Text Only | Print | Product List | Glossary On
Versions: 1 2 3 4 5 6 7 8 9 10 11 12 13 14 15 16 17 18 19 20 21 22 23 24 25 26 27 28 29 30 31 32 33 34 35 36 37 38 39 40 41 42 43 44 45 46 47 48 49 50
762
ASUS43 KMKX 240421
RWRWI

WISCONSIN REGIONAL WEATHER ROUNDUP
NATIONAL WEATHER SERVICE MILWAUKEE/SULLIVAN WI
1100 PM CDT SAT JUL 23 2016

NOTE: "FAIR" INDICATES FEW OR NO CLOUDS BELOW 12,000 FEET WITH NO
SIGNIFICANT WEATHER AND/OR OBSTRUCTIONS TO VISIBILITY.

WIZ001-002-006>008-014>016-023>028-240500-
NORTHWEST WISCONSIN

CITY           SKY/WX    TMP DP  RH WIND       PRES   REMARKS
SUPERIOR ARPT  CLOUDY    62  60  94 NE6       29.81S
ASHLAND        PTCLDY    71  68  90 S5        29.82F
HAYWARD        CLOUDY    70  67  90 S5        29.83F
SIREN          NOT AVBL
CUMBERLAND     CLOUDY    68  66  94 SE6       29.84S
RICE LAKE      CLOUDY    69  67  93 CALM      29.85S
CHETEK         CLOUDY    69  69  99 SE8       29.84S
LADYSMITH      CLOUDY    69  67  94 E3        29.88S
EAU CLAIRE     MOCLDY    70  69  97 E3        29.82F
MENOMONIE      PTCLDY    70  69  99 CALM      29.83S
NEW RICHMOND   CLOUDY    70  70  99 SE6       29.82R
OSCEOLA        CLOUDY    71  71 100 SE5       29.83R
$$

WIZ003>005-009-010-017-018-240500-
NORTH CENTRAL WISCONSIN

CITY           SKY/WX    TMP DP  RH WIND       PRES   REMARKS
MANITOWISH WTR RAIN      68  68 100 S8        29.89S
ARBOR VITAE    RAIN      69  68  95 S6        29.91S
WOODRUFF       RAIN      69  68  95 S6        29.91S
RHINELANDER    LGT RAIN  69  67  93 SE6       29.91S
EAGLE RIVER    HVY RAIN  69  69  99 SW6       29.90F
LAND O LAKES   LGT RAIN  71  69  93 S3        29.91S
PHILLIPS       CLOUDY    68  68  98 CALM      29.87F
TOMAHAWK       LGT RAIN  67  65  94 CALM      29.89F
MEDFORD        CLOUDY    67  67 100 CALM      29.87F
MERRILL        CLOUDY    68  68 100 CALM      29.88F
$$

WIZ029-030-035-036-043>047-240500-
CENTRAL WISCONSIN

CITY           SKY/WX    TMP DP  RH WIND       PRES   REMARKS
WAUSAU         CLOUDY    70  68  93 SE7       29.86F
MOSINEE        CLOUDY    68  68 100 SE3       29.88F
MARSHFIELD     LGT RAIN  70  67  90 SE7       29.86S
STEVENS POINT  CLOUDY    69  67  93 S6        29.88S
WAUPACA        CLOUDY    74  73  98 CALM      29.88S
WAUTOMA        CLOUDY    71  69  93 S3        29.88S
WISC RAPIDS    CLOUDY    72  67  84 S7        29.87F
CAMP DOUGLAS   CLOUDY    71  70  97 SE9       29.85S
$$

WIZ011>013-019>022-031-037>040-048>050-240500-
NORTHEAST WISCONSIN

CITY           SKY/WX    TMP DP  RH WIND       PRES   REMARKS
ANTIGO         LGT RAIN  70  68  95 CALM      29.91S
SHAWANO        DRIZZLE   75  69  80 S3        29.89S
OCONTO         CLOUDY   N/A N/A N/A SE6       29.88F
STURGEON BAY   CLOUDY    72  68  87 S8        29.90F
GREEN BAY      LGT RAIN  75  75 100 S6        29.88F
MANITOWOC      CLOUDY    69  68  96 CALM      29.91F FOG
APPLETON       MOCLDY    73  72  94 S9        29.88F
CLINTONVILLE   CLOUDY    72  68  88 CALM      29.88S
OSHKOSH        CLOUDY    73  70  90 S12       29.88F
$$

WIZ032>034-041-042-053>061-240500-
SOUTHWEST WISCONSIN

CITY           SKY/WX    TMP DP  RH WIND       PRES   REMARKS
LA CROSSE      MOCLDY    74  69  85 S8        29.82S
SPARTA         CLOUDY    70  68  94 CALM      29.85S
VIROQUA        PTCLDY    70  70 100 SE12      29.87R
BOSCOBEL       PTCLDY    73  70  90 CALM      29.86S
PRAIRIE DU CHI CLOUDY    70  69  96 SE7       29.85S
PLATTEVILLE    CLOUDY    71  71 100 SE10      29.90S
$$

WIZ056-057-062-063-064-067-068-240500-
SOUTH CENTRAL WISCONSIN

CITY           SKY/WX    TMP DP  RH WIND       PRES   REMARKS
REEDSBURG      CLOUDY    70  70 100 SE3       29.87S
BARABOO/DELLS  CLOUDY    70  68  92 S7        29.88S
LONE ROCK      CLOUDY    72  70  93 E5        29.87F
MINERAL POINT  CLOUDY    72  70  94 SE10      29.90S
MADISON        CLOUDY    72  70  93 S12       29.89S
MIDDLETON      CLOUDY    72  72 100 S6        29.90F
WATERTOWN      CLOUDY    71  71 100 S6        29.91S
MONROE         CLOUDY    70  70 100 SE6       29.91F
JANESVILLE     CLOUDY    72  70  94 SE9       29.91F
$$

WIZ051-052-058>065-066-070>072-240500-
SOUTHEAST WISCONSIN

CITY           SKY/WX    TMP DP  RH WIND       PRES   REMARKS
MILWAUKEE      LGT RAIN  73  69  87 S15G25    29.93F
WAUKESHA       LGT RAIN  68  68 100 S10       29.94F
MILWAUKEE/TIMM DRIZZLE   70  64  83 S8        29.94S
RACINE         LGT RAIN  72  69  90 S9        29.96F
BURLINGTON     LGT RAIN  71  70  98 S6        29.95S
KENOSHA        LGT RAIN  72  69  90 S9        29.97R
FOND DU LAC    CLOUDY    73  70  90 S10       29.89F
SHEBOYGAN      CLOUDY    73  71  93 S7        29.91F
WEST BEND      CLOUDY    70  68  94 S5        29.91F
JUNEAU         CLOUDY    70  69  96 SE7       29.91F
$$

LSZ147-162-240500-
LAKE SUPERIOR

STATION/POSITION TIME  TEMP    WIND        PRES    WAVE
                       AIR SEA DIR/SP/G            HT/PER
                 (UTC) (F)     (DEG/KT/KT) (MB)    (FT/S)
W MID LAKE BUOY  0350   61 57  150/  4/  6 1009.0F   2/ 4
DEVILS ISLAND    0400   64     210/  2/  3 1009.3F
PORT WING        0340   63      30/  6/  7 1009.8F
SAXON HARBOR     0300   70      CALM  /  1 1009.8S
$$

LMZ867-665-643>646-240500-
LAKE MICHIGAN

STATION/POSITION TIME  TEMP    WIND        PRES    WAVE
                       AIR SEA DIR/SP/G            HT/PER
                 (UTC) (F)     (DEG/KT/KT) (MB)    (FT/S)
CHAMBERS ISLAND  0300   75     140/  4/ 10 1012.2S
S GREEN BAY BUOY 0400   75 75  180/ 10/ 12   N/A
N MID LAKE BUOY  0350   72 71  130/  8/ 10 1011.5F   0
NORTHPORT PIER   0300   74     180/  4/  8 1012.2F
KEWAUNEE LAKESHO 0300   66                   N/A
SHEBOYGAN LAKESH 0400   71     190/ 16/ 17 1012.6F
PORT WASHINGTON  0300   68     200/  6/  8 1014.2
MILWAUKEE LAKESH 0310   69     190/ 10/ 11   N/A
S MID LAKE BUOY  0350   72 73  180/ 12/ 16 1013.7F   1/ 3
KENOSHA   LAKESH 0400   71     200/ 12/ 15 1014.2F
$$

TC  - TEMPERATURE IN CELSIUS
VSB - VISIBILITY IN STATUTE MILES
WCI - WIND CHILL INDEX
HX  - HEAT INDEX





USA.gov is the U.S. government's official web portal to all federal, state and local government web resources and services.